Weather History for Livingston, MT

Change the Weather History Date:

Wednesday, February 13, 2013

  Actual Average Record
Temperature  
Mean Temperature 40 °F 28 °F  
Max Temperature 45 °F 39 °F 63 °F (1996)
Min Temperature 33 °F 18 °F -23 °F (1949)
Degree Days  
Heating Degree Days 25 36  
Month to date heating degree days 481  
Since 1 July heating degree days 4822  
Moisture  
Dew Point 18 °F    
Average Humidity 43    
Maximum Humidity 66    
Minimum Humidity 26    
Precipitation  
Precipitation 0.00 in 0.02 in 0.28 in (1954)
Month to date precipitation 0.21  
Year to date precipitation 0.70  
Sea Level Pressure  
Sea Level Pressure 29.99 in    
Wind  
Wind Speed 26 mph (West)    
Max Wind Speed 38 mph    
Max Gust Speed 56 mph    
Visibility 10 miles    
Events Snow    
T = Trace of Precipitation, MM = Missing Value Source: NWS Daily Summary

Daily Weather History Graph

Daily Weather History Graph

Search for Another Location

Airport:

Trip Planner

Search our weather history database for the weather conditions in past years. The results will help you decide how hot, cold, wet, or windy it might be!

Date:

Astronomy

Feb. 13, 2013 Rise Set
Actual Time 7:26 AM MST 5:46 PM MST
Civil Twilight 6:55 AM MST 6:16 PM MST
Nautical Twilight 6:20 AM MST 6:51 PM MST
Astronomical Twilight 5:46 AM MST 7:26 PM MST
Moon 8:43 AM MST (2/13) 10:08 PM MST (2/13)
Length of Visible Light 11h 21m
Length of Day
10h 19m
Waxing Crescent, 14% of the Moon is Illuminated
Feb 13
Waxing Crescent
Feb 17
First Quarter
Feb 25
Full
Mar 4
Last Quarter
Mar 11
New

Hourly Weather History & Observations

Time (MST) Temp. Windchill Dew Point Humidity Pressure Visibility Wind Dir Wind Speed Gust Speed Precip Events Conditions
12:53 AM 36.0 °F 21.6 °F 17.1 °F 46% 30.00 in 10.0 mi SW 38.0 mph 55.2 mph N/A   Scattered Clouds
1:53 AM 35.1 °F 20.4 °F 17.1 °F 48% 29.96 in 10.0 mi SW 38.0 mph 56.4 mph N/A   Mostly Cloudy
2:53 AM 35.1 °F 20.6 °F 17.1 °F 48% 29.96 in 10.0 mi SW 36.8 mph 50.6 mph N/A   Overcast
3:53 AM 37.9 °F 27.1 °F 18.0 °F 45% 29.99 in 10.0 mi SW 23.0 mph 39.1 mph N/A   Overcast
4:53 AM 37.9 °F 27.3 °F 18.0 °F 45% 29.95 in 10.0 mi SW 21.9 mph 39.1 mph N/A   Overcast
5:53 AM 37.9 °F 26.6 °F 19.0 °F 47% 29.95 in 10.0 mi SW 25.3 mph 40.3 mph N/A   Overcast
6:53 AM 41.0 °F 30.2 °F 19.9 °F 43% 29.93 in 10.0 mi WSW 27.6 mph 47.2 mph N/A   Mostly Cloudy
7:53 AM 42.1 °F 33.1 °F 19.0 °F 40% 29.93 in 10.0 mi WSW 20.7 mph 36.8 mph N/A   Overcast
8:53 AM 43.0 °F 34.5 °F 19.0 °F 38% 29.92 in 10.0 mi WSW 19.6 mph 34.5 mph N/A   Overcast
9:53 AM 43.0 °F 34.5 °F 19.0 °F 38% 29.94 in 10.0 mi West 19.6 mph 27.6 mph N/A   Overcast
10:53 AM 44.1 °F 34.0 °F 19.9 °F 38% 29.94 in 10.0 mi West 29.9 mph 38.0 mph N/A   Overcast
11:53 AM 43.0 °F 32.9 °F 24.1 °F 47% 29.97 in 10.0 mi West 27.6 mph 42.6 mph N/A   Overcast
12:53 PM 43.0 °F 35.4 °F 21.9 °F 43% 29.97 in 10.0 mi WNW 16.1 mph - N/A   Overcast
1:53 PM 43.0 °F 36.8 °F 21.9 °F 43% 29.98 in 10.0 mi West 11.5 mph - N/A   Mostly Cloudy
2:53 PM 45.0 °F 36.2 °F 12.0 °F 26% 29.96 in 10.0 mi WNW 24.2 mph 31.1 mph N/A   Overcast
3:53 PM 44.1 °F 35.2 °F 10.9 °F 26% 29.97 in 10.0 mi WNW 23.0 mph 31.1 mph N/A   Overcast
4:53 PM 42.1 °F 33.9 °F 12.0 °F 29% 29.99 in 10.0 mi NW 17.3 mph 23.0 mph N/A   Overcast
5:53 PM 39.0 °F 31.0 °F 17.1 °F 41% 30.01 in 10.0 mi NW 13.8 mph - N/A   Overcast
6:53 PM 37.0 °F 31.0 °F 19.0 °F 48% 30.03 in 10.0 mi NNW 8.1 mph - N/A   Overcast
7:53 PM 36.0 °F 30.3 °F 19.0 °F 50% 30.06 in 10.0 mi WNW 6.9 mph - N/A   Overcast
8:53 PM 35.1 °F 29.3 °F 19.0 °F 52% 30.07 in 10.0 mi WSW 6.9 mph - N/A   Overcast
9:53 PM 36.0 °F 28.0 °F 17.1 °F 46% 30.06 in 10.0 mi West 11.5 mph - N/A   Overcast
10:53 PM 36.0 °F 25.3 °F 19.0 °F 50% 30.08 in 10.0 mi WSW 19.6 mph 24.2 mph N/A   Overcast
11:53 PM 33.1 °F 21.9 °F 23.0 °F 66% 30.13 in 6.0 mi NNW 18.4 mph 27.6 mph 0.00 in Snow Light Snow